User: anonymous   Login
Location: Unspecified
(0.0000°N, 0.0000°E)
Time: 12:32:13
(UTC+00:00)
Language:

Tiros 1 - Orbit

View from above orbital plane
View from above orbital plane
View from above satellite
View from above satellite

Ground track
Ground track

The orbit data is extracted from the following two-line orbital elements,

1    29U 60002B   17345.44254448 -.00000106 +00000-0 +15229-4 0  9995
2    29 048.3805 325.2603 0024764 261.5603 098.2501 14.74215938082940
Epoch (UTC): 11 December 2017 10:37:15
Eccentricity: 0.0024764
inclination: 48.3805°
perigee height: 630 km
apogee height: 665 km
right ascension of ascending node: 325.2603°
argument of perigee: 261.5603°
revolutions per day: 14.74215938
mean anomaly at epoch: 98.2501°
orbit number at epoch: 8294

The dashed part of the orbit path shows where the satellite is in the earth's shadow,  

DLR